Temp
-16 -16 -16 -16 -16 -15 -15 -15 -15 -15 -15 -15 -15 -15 -15 -15 -15 -15 -15 -15 -15 -15 -15 -15 -15 -15 -15 -15 -15 -15 -15 -15 -15 -15 -15 -14 -14 -14 -14 -14 -14 -14 -14 -14 -14 -14 -14 -14 -15 -15 -15 -14 -14 -14 -14 -14 -14 -14 -14 -14 -14 -14 -14
-16 -16 -16 -16 -16 -16 -15 -15 -15 -15 -15 -15 -15 -15 -15 -15 -15 -15 -15 -15 -15 -15 -15 -15 -15 -15 -15 -15 -15 -15 -15 -14 -14 -15 -15 -14 -14 -14 -14 -14 -15 -15 -14 -14 -14 -14 -14 -14 -14 -15 -15 -15 -15 -15 -15 -14 -14 -14 -14 -14 -14 -14 -14
-16 -16 -16 -16 -16 -16 -16 -15 -15 -15 -15 -15 -15 -15 -15 -15 -15 -15 -15 -15 -15 -15 -15 -15 -15 -15 -15 -15 -15 -14 -14 -14 -14 -14 -14 -15 -14 -14 -14 -14 -15 -15 -15 -15 -15 -15 -14 -14 -14 -15 -15 -15 -15 -15 -15 -15 -15 -14 -14 -14 -14 -14 -14
-16 -16 -16 -16 -16 -16 -16 -16 -15 -15 -15 -15 -15 -15 -15 -15 -15 -15 -15 -15 -15 -15 -15 -15 -15 -15 -15 -15 -15 -14 -14 -14 -14 -14 -14 -15 -15 -15 -15 -15 -15 -15 -15 -15 -15 -15 -15 -15 -15 -15 -15 -15 -15 -15 -15 -14 -14 -14 -14 -14 -14 -14 -14
-16 -16 -16 -16 -16 -16 -16 -16 -15 -15 -15 -15 -15 -15 -15 -15 -15 -15 -15 -15 -15 -15 -15 -15 -15 -15 -15 -15 -14 -14 -14 -14 -14 -14 -14 -15 -15 -15 -15 -15 -15 -15 -15 -15 -15 -15 -15 -15 -15 -15 -15 -15 -15 -15 -15 -15 -15 -14 -14 -14 -14 -14 -14
-16 -16 -16 -16 -16 -16 -16 -15 -15 -15 -15 -15 -15 -15 -15 -15 -15 -15 -15 -15 -15 -15 -15 -15 -15 -15 -15 -15 -14 -14 -14 -14 -14 -14 -14 -15 -15 -15 -15 -15 -15 -15 -15 -15 -15 -15 -15 -15 -15 -15 -15 -15 -15 -15 -15 -15 -15 -15 -14 -14 -14 -14 -14
-16 -16 -16 -16 -16 -16 -16 -16 -15 -15 -15 -15 -15 -15 -15 -15 -15 -15 -15 -15 -15 -15 -15 -15 -15 -15 -15 -14 -14 -14 -14 -14 -14 -14 -15 -15 -15 -15 -15 -15 -15 -16 -16 -16 -16 -15 -16 -16 -16 -15 -15 -15 -15 -15 -15 -15 -15 -15 -15 -14 -14 -14 -14
-16 -16 -16 -16 -16 -16 -16 -16 -16 -16 -15 -15 -15 -15 -15 -15 -15 -15 -15 -15 -15 -15 -15 -15 -15 -15 -15 -14 -14 -14 -14 -14 -15 -15 -15 -15 -15 -15 -15 -16 -16 -16 -16 -16 -16 -16 -16 -16 -16 -16 -16 -16 -16 -15 -15 -15 -15 -15 -15 -14 -14 -14 -14
-17 -17 -17 -17 -17 -16 -16 -16 -16 -16 -16 -16 -15 -15 -15 -15 -15 -15 -15 -15 -15 -15 -15 -15 -15 -15 -15 -15 -14 -14 -15 -15 -15 -15 -15 -15 -15 -15 -16 -16 -16 -16 -16 -16 -16 -16 -16 -16 -16 -16 -16 -16 -16 -15 -15 -15 -15 -15 -14 -14 -14 -14 -14
-17 -17 -17 -17 -17 -17 -17 -16 -16 -16 -16 -16 -16 -16 -16 -15 -15 -15 -15 -15 -15 -15 -15 -15 -15 -15 -15 -15 -15 -15 -15 -15 -15 -15 -15 -15 -15 -15 -16 -16 -16 -16 -16 -17 -17 -17 -16 -16 -16 -16 -17 -16 -16 -16 -15 -15 -15 -14 -14 -14 -14 -14 -14
-17 -17 -17 -17 -17 -17 -17 -17 -17 -16 -16 -16 -16 -16 -16 -16 -16 -15 -15 -15 -15 -15 -15 -15 -15 -15 -15 -15 -15 -15 -15 -15 -15 -15 -15 -15 -15 -16 -16 -16 -16 -16 -17 -17 -17 -17 -17 -17 -17 -17 -17 -17 -16 -16 -16 -15 -15 -14 -14 -14 -14 -14 -15
-18 -17 -17 -17 -17 -17 -17 -17 -17 -17 -17 -16 -16 -16 -16 -16 -16 -16 -15 -15 -15 -15 -15 -15 -15 -15 -15 -15 -16 -16 -16 -16 -16 -16 -16 -16 -16 -16 -16 -16 -16 -17 -17 -17 -17 -17 -17 -17 -17 -17 -17 -17 -17 -16 -16 -16 -16 -15 -15 -14 -14 -14 -15
-18 -18 -18 -18 -18 -17 -17 -17 -17 -17 -17 -17 -17 -17 -16 -16 -16 -16 -16 -16 -16 -16 -15 -15 -16 -16 -16 -16 -16 -16 -16 -16 -16 -16 -16 -16 -16 -16 -16 -16 -16 -17 -17 -17 -17 -17 -18 -18 -17 -17 -17 -17 -17 -17 -17 -16 -16 -15 -15 -15 -15 -15 -15
-17 -18 -18 -18 -18 -18 -18 -18 -17 -17 -17 -17 -17 -17 -17 -17 -17 -16 -16 -16 -16 -16 -16 -16 -16 -16 -16 -16 -16 -16 -16 -16 -16 -16 -17 -16 -17 -17 -17 -16 -16 -17 -17 -17 -17 -17 -18 -18 -18 -18 -17 -17 -17 -17 -17 -16 -16 -15 -15 -15 -15 -15 -15
-17 -18 -18 -18 -18 -18 -18 -18 -18 -18 -18 -18 -18 -18 -17 -17 -17 -17 -17 -17 -17 -17 -17 -17 -16 -16 -17 -17 -17 -17 -17 -17 -17 -17 -17 -17 -17 -17 -17 -17 -16 -17 -17 -17 -17 -17 -18 -18 -17 -17 -17 -17 -17 -17 -17 -17 -16 -16 -16 -15 -15 -15 -15
-17 -17 -18 -18 -18 -18 -18 -18 -18 -18 -18 -18 -18 -18 -18 -18 -18 -18 -17 -17 -17 -17 -17 -17 -17 -17 -17 -17 -17 -17 -17 -17 -17 -17 -17 -17 -17 -17 -17 -17 -17 -17 -17 -17 -17 -17 -18 -18 -17 -17 -17 -17 -17 -17 -17 -17 -17 -16 -16 -16 -16 -16 -16
-17 -17 -17 -18 -18 -18 -18 -18 -18 -18 -18 -18 -18 -18 -18 -18 -18 -18 -18 -18 -17 -17 -17 -17 -17 -17 -17 -17 -17 -17 -17 -17 -17 -17 -17 -17 -17 -17 -17 -17 -17 -17 -17 -17 -17 -17 -17 -17 -17 -17 -17 -17 -17 -17 -17 -17 -17 -17 -16 -16 -16 -16 -16
-17 -17 -17 -17 -17 -18 -18 -18 -18 -18 -18 -18 -18 -18 -18 -18 -18 -18 -18 -18 -17 -17 -17 -18 -18 -18 -18 -17 -17 -17 -17 -17 -17 -17 -17 -17 -17 -17 -17 -17 -17 -17 -17 -17 -17 -17 -17 -17 -17 -17 -17 -17 -17 -17 -17 -17 -17 -17 -16 -16 -16 -16 -16
-17 -17 -17 -17 -17 -17 -18 -18 -18 -18 -18 -18 -18 -18 -18 -18 -18 -18 -17 -18 -18 -18 -18 -18 -18 -18 -18 -17 -17 -17 -17 -17 -17 -17 -17 -17 -17 -17 -17 -17 -17 -17 -17 -17 -18 -18 -18 -18 -17 -17 -17 -17 -17 -17 -17 -17 -17 -17 -17 -16 -16 -16 -16
-18 -18 -18 -17 -17 -17 -17 -18 -18 -18 -18 -18 -17 -17 -18 -18 -18 -18 -18 -18 -18 -18 -18 -18 -18 -18 -17 -17 -17 -17 -17 -17 -17 -17 -17 -17 -17 -17 -17 -17 -17 -17 -17 -17 -17 -17 -17 -17 -17 -17 -17 -17 -17 -17 -17 -17 -17 -17 -17 -17 -17 -17 -16
-18 -18 -18 -18 -18 -17 -17 -17 -17 -18 -18 -18 -18 -17 -17 -18 -18 -18 -18 -18 -18 -18 -18 -18 -18 -18 -17 -17 -17 -17 -17 -17 -17 -17 -17 -17 -17 -17 -17 -17 -17 -17 -17 -17 -17 -17 -17 -17 -17 -17 -17 -17 -17 -17 -17 -17 -17 -17 -17 -17 -17 -17 -17
-18 -18 -18 -18 -18 -18 -18 -18 -18 -18 -18 -18 -18 -18 -18 -18 -17 -17 -17 -18 -18 -18 -17 -17 -17 -17 -17 -17 -17 -17 -17 -17 -17 -17 -17 -17 -17 -17 -18 -17 -17 -18 -18 -18 -18 -18 -18 -18 -18 -17 -17 -17 -17 -17 -17 -17 -17 -17 -17 -17 -17 -17 -17
-18 -18 -18 -18 -18 -18 -18 -18 -18 -18 -18 -18 -18 -18 -18 -18 -18 -18 -18 -18 -18 -17 -17 -17 -17 -17 -17 -17 -17 -17 -17 -17 -17 -17 -18 -18 -18 -18 -18 -18 -18 -18 -18 -18 -18 -18 -18 -18 -18 -18 -18 -18 -18 -18 -18 -18 -18 -18 -17 -17 -17 -17 -17
-18 -18 -18 -18 -18 -18 -18 -18 -18 -18 -18 -18 -18 -18 -18 -18 -18 -18 -18 -18 -17 -17 -17 -17 -17 -17 -17 -17 -17 -17 -17 -17 -17 -18 -18 -18 -18 -18 -18 -18 -18 -18 -18 -18 -18 -18 -18 -18 -18 -18 -18 -18 -18 -18 -18 -18 -18 -18 -18 -18 -18 -17 -17
-18 -18 -18 -18 -18 -18 -18 -18 -18 -18 -18 -18 -18 -18 -18 -18 -18 -18 -18 -18 -17 -17 -17 -17 -17 -17 -17 -17 -17 -17 -17 -18 -18 -18 -18 -18 -18 -18 -18 -18 -18 -18 -18 -18 -18 -18 -18 -18 -18 -18 -18 -18 -18 -18 -18 -18 -18 -18 -18 -18 -18 -18 -18
-18 -18 -18 -18 -18 -18 -18 -18 -18 -18 -18 -18 -18 -18 -18 -18 -18 -18 -17 -17 -17 -17 -17 -17 -17 -17 -17 -17 -17 -17 -18 -18 -18 -18 -18 -18 -18 -18 -18 -18 -18 -18 -18 -18 -18 -18 -18 -18 -18 -18 -18 -18 -18 -18 -18 -18 -18 -18 -18 -18 -18 -18 -18
-18 -18 -18 -18 -18 -18 -18 -18 -18 -18 -18 -18 -18 -18 -18 -18 -18 -17 -17 -17 -17 -17 -17 -17 -17 -17 -17 -17 -17 -17 -18 -18 -18 -18 -18 -18 -18 -18 -18 -18 -18 -18 -18 -18 -18 -18 -18 -18 -18 -18 -18 -18 -18 -18 -18 -18 -18 -18 -18 -18 -18 -18 -18
-18 -18 -18 -18 -18 -18 -18 -18 -18 -18 -18 -18 -18 -18 -18 -18 -18 -17 -17 -17 -17 -17 -17 -17 -17 -17 -17 -17 -17 -17 -18 -18 -18 -18 -18 -18 -18 -18 -18 -18 -18 -18 -18 -18 -18 -18 -18 -18 -18 -18 -18 -18 -18 -18 -18 -18 -18 -18 -18 -18 -18 -18 -18
-18 -18 -18 -18 -18 -18 -18 -18 -18 -18 -18 -18 -18 -18 -18 -18 -18 -17 -17 -17 -17 -17 -17 -17 -17 -17 -17 -17 -17 -18 -18 -18 -18 -18 -18 -18 -18 -18 -18 -18 -18 -18 -18 -18 -18 -18 -18 -18 -18 -18 -18 -18 -18 -18 -18 -18 -18 -18 -18 -18 -18 -18 -18
-18 -18 -18 -18 -18 -18 -18 -18 -18 -18 -18 -18 -18 -18 -18 -18 -18 -17 -17 -17 -17 -17 -17 -17 -17 -17 -17 -17 -18 -18 -18 -18 -18 -18 -18 -18 -18 -18 -18 -18 -18 -18 -18 -18 -18 -18 -18 -18 -18 -18 -18 -18 -18 -18 -18 -18 -18 -18 -18 -18 -18 -18 -18
-18 -18 -18 -18 -18 -18 -18 -18 -18 -18 -18 -18 -18 -18 -18 -18 -17 -17 -17 -17 -17 -17 -17 -17 -17 -17 -17 -18 -18 -18 -18 -18 -18 -18 -18 -18 -18 -18 -18 -18 -18 -18 -18 -18 -18 -18 -18 -18 -18 -18 -18 -18 -18 -18 -18 -18 -18 -18 -18 -18 -18 -18 -18
-18 -18 -18 -18 -18 -18 -18 -18 -18 -18 -18 -18 -18 -18 -18 -18 -17 -17 -17 -17 -17 -17 -17 -17 -17 -17 -18 -18 -18 -18 -18 -18 -18 -18 -18 -18 -18 -18 -18 -18 -18 -18 -18 -18 -18 -18 -18 -18 -18 -18 -18 -18 -18 -18 -18 -18 -18 -18 -18 -18 -18 -18 -18
-18 -18 -18 -18 -18 -18 -18 -18 -18 -18 -18 -18 -18 -18 -18 -17 -17 -17 -17 -17 -17 -17 -17 -17 -17 -18 -18 -18 -18 -18 -18 -18 -18 -18 -18 -18 -18 -18 -18 -18 -18 -18 -18 -18 -18 -18 -18 -18 -18 -18 -18 -18 -18 -18 -18 -18 -18 -18 -18 -18 -18 -18 -18
-18 -18 -18 -18 -18 -18 -18 -18 -18 -18 -18 -18 -18 -18 -17 -17 -17 -17 -17 -17 -17 -17 -17 -17 -17 -18 -18 -18 -18 -18 -18 -18 -18 -18 -18 -18 -18 -18 -18 -18 -18 -18 -18 -18 -18 -18 -18 -18 -18 -18 -18 -18 -18 -18 -18 -18 -18 -18 -18 -18 -18 -18 -18
-18 -18 -18 -18 -18 -18 -18 -18 -18 -18 -18 -18 -18 -17 -17 -17 -17 -17 -17 -17 -17 -17 -17 -17 -17 -18 -18 -18 -18 -18 -18 -18 -18 -18 -18 -18 -18 -18 -18 -18 -18 -18 -18 -18 -18 -18 -18 -18 -18 -18 -18 -18 -18 -18 -18 -18 -18 -18 -18 -18 -18 -18 -18
-18 -18 -18 -17 -17 -17 -18 -18 -18 -18 -18 -18 -17 -17 -17 -17 -17 -17 -17 -17 -17 -17 -17 -17 -17 -18 -18 -18 -18 -18 -18 -18 -18 -18 -18 -18 -18 -18 -18 -18 -18 -18 -18 -18 -18 -18 -18 -18 -18 -18 -18 -18 -18 -18 -18 -18 -18 -18 -18 -18 -18 -18 -18
-18 -17 -17 -17 -17 -17 -17 -17 -17 -17 -17 -17 -17 -17 -17 -17 -17 -17 -17 -17 -17 -17 -17 -17 -17 -17 -17 -18 -18 -18 -18 -18 -18 -18 -18 -18 -18 -18 -18 -18 -18 -18 -18 -18 -18 -18 -18 -18 -18 -18 -19 -19 -19 -18 -18 -18 -18 -18 -18 -18 -18 -18 -18
Height
5767 5767 5766 5766 5766 5766 5766 5766 5766 5766 5767 5767 5767 5767 5767 5767 5767 5767 5767 5767 5767 5767 5767 5767 5768 5768 5769 5769 5769 5770 5769 5769 5769 5769 5768 5767 5767 5768 5768 5767 5768 5769 5769 5770 5771 5772 5774 5776 5776 5774 5775 5776 5777 5778 5778 5778 5779 5779 5779 5779 5779 5779 5779
5765 5764 5764 5763 5763 5763 5763 5764 5763 5763 5763 5763 5763 5763 5763 5763 5763 5763 5764 5763 5764 5764 5764 5764 5765 5765 5766 5766 5766 5766 5766 5766 5765 5765 5764 5764 5764 5764 5764 5764 5764 5765 5765 5765 5766 5767 5769 5772 5773 5771 5770 5771 5773 5775 5775 5774 5775 5776 5776 5776 5776 5776 5776
5762 5762 5761 5761 5761 5761 5761 5761 5760 5760 5760 5760 5760 5759 5760 5760 5760 5760 5761 5761 5761 5761 5761 5762 5762 5762 5762 5763 5763 5763 5763 5762 5761 5761 5760 5760 5760 5760 5760 5760 5761 5761 5761 5761 5761 5762 5763 5766 5768 5768 5766 5767 5769 5771 5771 5771 5771 5772 5772 5772 5772 5772 5773
5760 5759 5759 5759 5758 5758 5758 5758 5757 5757 5757 5757 5756 5756 5757 5757 5757 5757 5757 5758 5758 5758 5758 5758 5759 5759 5759 5759 5759 5759 5758 5758 5757 5757 5756 5756 5756 5756 5756 5756 5757 5757 5757 5757 5757 5757 5758 5759 5761 5763 5763 5763 5765 5766 5766 5766 5768 5768 5768 5768 5768 5768 5770
5757 5757 5757 5756 5756 5756 5755 5755 5754 5754 5754 5753 5753 5753 5754 5754 5754 5754 5754 5754 5754 5755 5755 5755 5756 5755 5755 5755 5755 5755 5754 5754 5753 5753 5752 5752 5751 5751 5751 5751 5752 5753 5753 5753 5753 5753 5754 5754 5756 5758 5759 5759 5761 5762 5761 5762 5763 5764 5764 5764 5764 5765 5767
5754 5754 5754 5753 5753 5753 5752 5752 5752 5751 5751 5751 5750 5750 5750 5751 5751 5751 5751 5751 5751 5752 5752 5752 5752 5752 5752 5752 5751 5751 5750 5750 5749 5749 5748 5748 5747 5747 5747 5747 5748 5748 5748 5749 5749 5749 5750 5750 5751 5752 5754 5754 5756 5757 5757 5758 5759 5760 5759 5759 5760 5762 5763
5751 5751 5750 5750 5750 5749 5749 5748 5748 5748 5748 5747 5747 5747 5747 5747 5748 5748 5748 5748 5748 5748 5748 5749 5749 5749 5749 5748 5748 5747 5747 5746 5746 5745 5745 5744 5743 5743 5743 5743 5743 5744 5744 5744 5745 5745 5745 5746 5746 5747 5748 5750 5751 5753 5753 5754 5755 5756 5755 5756 5757 5759 5760
5749 5748 5747 5747 5746 5746 5745 5745 5744 5744 5744 5744 5743 5743 5743 5744 5744 5744 5745 5745 5745 5745 5745 5745 5745 5746 5745 5745 5744 5744 5743 5743 5743 5742 5742 5741 5740 5740 5740 5740 5739 5739 5739 5740 5740 5740 5741 5741 5741 5742 5744 5746 5747 5749 5750 5750 5750 5751 5753 5754 5754 5755 5755
5746 5745 5745 5744 5743 5742 5742 5741 5741 5740 5740 5740 5740 5740 5740 5740 5740 5740 5741 5741 5741 5741 5741 5742 5742 5742 5742 5741 5741 5741 5740 5740 5740 5739 5739 5738 5738 5737 5737 5736 5736 5736 5735 5735 5736 5736 5736 5736 5737 5738 5739 5741 5743 5744 5745 5746 5746 5748 5750 5751 5751 5751 5752
5744 5743 5742 5741 5740 5739 5739 5738 5737 5737 5736 5736 5736 5736 5736 5736 5737 5737 5737 5737 5737 5738 5738 5738 5738 5738 5738 5738 5738 5738 5737 5737 5737 5736 5736 5735 5735 5734 5734 5734 5733 5732 5732 5732 5731 5731 5731 5732 5733 5734 5735 5737 5738 5739 5741 5741 5741 5744 5746 5747 5748 5748 5748
5742 5741 5739 5738 5737 5736 5735 5735 5734 5733 5732 5732 5732 5732 5732 5733 5733 5733 5734 5734 5734 5734 5734 5734 5734 5735 5735 5735 5735 5735 5734 5734 5734 5734 5733 5733 5732 5732 5731 5731 5730 5730 5729 5728 5727 5727 5727 5728 5729 5730 5731 5732 5732 5734 5736 5735 5736 5739 5740 5742 5744 5744 5745
5739 5738 5737 5736 5734 5733 5732 5732 5731 5729 5729 5728 5728 5728 5729 5729 5730 5730 5730 5731 5731 5731 5731 5731 5731 5731 5732 5732 5732 5732 5732 5731 5731 5731 5731 5730 5730 5729 5729 5728 5728 5727 5726 5725 5724 5723 5723 5724 5725 5726 5727 5728 5728 5729 5731 5731 5732 5734 5735 5736 5739 5740 5740
5737 5736 5735 5733 5732 5731 5730 5729 5728 5727 5726 5725 5725 5725 5725 5726 5726 5727 5727 5728 5728 5728 5728 5728 5728 5729 5729 5729 5729 5729 5729 5729 5729 5728 5728 5728 5727 5727 5726 5725 5725 5724 5722 5721 5721 5720 5720 5720 5721 5723 5724 5725 5725 5726 5726 5727 5729 5731 5731 5731 5733 5734 5734
5735 5734 5733 5732 5730 5729 5728 5727 5726 5724 5723 5722 5722 5722 5722 5723 5724 5724 5725 5725 5725 5725 5726 5726 5726 5726 5727 5727 5727 5726 5726 5726 5726 5726 5726 5725 5725 5724 5724 5723 5721 5720 5719 5718 5718 5717 5717 5718 5719 5720 5721 5722 5722 5722 5723 5724 5726 5726 5726 5726 5727 5728 5729
5734 5733 5732 5730 5729 5728 5727 5725 5724 5723 5721 5720 5720 5720 5720 5721 5721 5722 5722 5723 5723 5723 5724 5724 5724 5724 5724 5724 5724 5724 5724 5723 5723 5723 5723 5723 5722 5722 5721 5720 5719 5718 5717 5716 5715 5715 5715 5715 5716 5717 5718 5719 5719 5720 5720 5721 5721 5721 5720 5721 5722 5723 5725
5732 5731 5730 5729 5728 5727 5726 5724 5723 5721 5720 5719 5719 5719 5719 5719 5719 5720 5720 5721 5721 5721 5722 5722 5722 5722 5722 5722 5722 5721 5721 5721 5720 5720 5720 5720 5720 5719 5718 5717 5716 5715 5714 5713 5713 5713 5712 5713 5713 5714 5715 5716 5716 5717 5717 5718 5718 5717 5717 5717 5718 5719 5720
5731 5730 5729 5728 5727 5726 5725 5723 5722 5721 5720 5719 5718 5718 5718 5718 5718 5718 5719 5719 5719 5720 5720 5720 5720 5720 5720 5720 5720 5719 5719 5719 5718 5718 5718 5718 5718 5717 5716 5715 5714 5713 5712 5711 5711 5711 5710 5711 5711 5712 5712 5713 5714 5714 5714 5715 5715 5714 5714 5714 5715 5716 5717
5729 5728 5727 5726 5726 5725 5724 5723 5722 5721 5720 5719 5718 5717 5717 5717 5717 5717 5717 5717 5718 5718 5718 5718 5719 5719 5719 5718 5718 5718 5718 5717 5717 5717 5717 5717 5717 5716 5715 5714 5713 5712 5711 5711 5710 5710 5709 5709 5709 5710 5710 5711 5711 5712 5712 5712 5712 5711 5711 5711 5712 5713 5713
5727 5726 5725 5725 5724 5724 5723 5722 5721 5721 5720 5719 5718 5717 5717 5716 5716 5716 5716 5716 5716 5717 5717 5717 5718 5718 5718 5718 5717 5717 5717 5717 5717 5717 5716 5716 5716 5716 5715 5714 5714 5713 5712 5712 5711 5710 5710 5709 5709 5709 5709 5709 5710 5710 5710 5710 5709 5709 5709 5709 5709 5709 5710
5725 5724 5724 5723 5723 5722 5722 5721 5721 5720 5720 5719 5718 5718 5717 5716 5716 5716 5715 5716 5716 5716 5716 5717 5717 5717 5717 5717 5717 5717 5716 5716 5716 5716 5716 5716 5716 5716 5715 5715 5715 5714 5714 5713 5712 5712 5711 5711 5710 5710 5710 5710 5710 5710 5710 5709 5709 5708 5708 5707 5707 5707 5707
5723 5722 5722 5721 5721 5721 5720 5720 5720 5720 5719 5719 5718 5718 5717 5716 5716 5716 5716 5716 5716 5716 5716 5716 5716 5716 5716 5716 5716 5716 5716 5716 5716 5716 5716 5716 5716 5716 5716 5715 5715 5715 5714 5714 5713 5713 5712 5712 5711 5711 5710 5710 5710 5710 5709 5709 5708 5708 5707 5706 5706 5706 5705
5721 5720 5720 5719 5719 5719 5719 5719 5719 5719 5719 5719 5718 5718 5717 5716 5716 5716 5716 5716 5716 5716 5716 5716 5716 5716 5716 5716 5716 5716 5716 5716 5716 5716 5716 5716 5716 5716 5716 5716 5715 5715 5714 5714 5713 5713 5712 5712 5711 5711 5710 5710 5709 5709 5708 5707 5707 5706 5706 5705 5704 5704 5703
5719 5719 5718 5718 5717 5717 5717 5717 5717 5717 5717 5718 5718 5717 5717 5716 5716 5716 5716 5716 5715 5715 5715 5715 5716 5716 5716 5716 5716 5716 5716 5716 5716 5716 5716 5717 5717 5716 5716 5716 5715 5715 5714 5714 5713 5713 5712 5711 5711 5710 5709 5709 5708 5707 5706 5706 5705 5704 5704 5703 5702 5702 5701
5717 5717 5716 5716 5716 5716 5716 5715 5716 5716 5716 5716 5716 5716 5716 5716 5715 5715 5715 5715 5715 5715 5715 5715 5715 5715 5715 5715 5716 5716 5716 5716 5717 5717 5717 5717 5717 5717 5716 5716 5715 5715 5714 5713 5713 5712 5711 5710 5710 5709 5708 5707 5706 5706 5705 5704 5703 5702 5701 5701 5700 5700 5699
5715 5715 5714 5714 5714 5714 5714 5714 5714 5714 5714 5715 5715 5715 5715 5715 5715 5714 5714 5714 5714 5714 5715 5715 5715 5715 5716 5716 5716 5716 5716 5716 5717 5717 5717 5717 5717 5716 5716 5716 5715 5714 5714 5713 5712 5711 5711 5710 5709 5708 5707 5706 5705 5704 5703 5702 5701 5700 5700 5699 5698 5697 5697
5712 5712 5713 5712 5712 5712 5712 5712 5712 5713 5713 5713 5713 5714 5714 5714 5714 5714 5714 5714 5714 5714 5714 5715 5715 5715 5716 5716 5716 5716 5716 5717 5717 5717 5717 5717 5716 5716 5716 5715 5715 5714 5713 5712 5712 5711 5710 5709 5708 5707 5706 5705 5705 5704 5702 5701 5700 5699 5698 5697 5697 5696 5695
5710 5710 5710 5711 5710 5710 5710 5711 5711 5711 5711 5712 5712 5712 5712 5713 5713 5713 5713 5713 5714 5714 5714 5715 5715 5715 5716 5716 5716 5716 5716 5716 5716 5716 5716 5716 5716 5715 5715 5714 5714 5713 5712 5712 5711 5710 5709 5708 5707 5706 5705 5704 5703 5702 5701 5700 5699 5698 5697 5696 5695 5694 5693
5708 5708 5709 5709 5709 5708 5709 5709 5709 5709 5710 5710 5710 5711 5711 5711 5712 5712 5712 5713 5713 5714 5714 5715 5715 5715 5715 5715 5716 5716 5716 5716 5716 5716 5715 5715 5715 5714 5714 5713 5713 5712 5711 5710 5709 5708 5707 5706 5706 5705 5704 5703 5701 5700 5699 5697 5696 5696 5695 5694 5693 5692 5691
5706 5706 5707 5707 5707 5706 5707 5707 5708 5708 5708 5709 5709 5709 5710 5710 5711 5711 5712 5712 5713 5713 5714 5714 5714 5715 5715 5715 5715 5715 5715 5715 5715 5715 5714 5714 5713 5713 5712 5712 5711 5710 5709 5708 5707 5706 5705 5704 5704 5703 5702 5701 5699 5698 5697 5695 5694 5693 5692 5691 5690 5689 5688
5704 5705 5705 5705 5705 5705 5705 5705 5706 5707 5707 5707 5708 5708 5709 5709 5710 5710 5711 5711 5712 5713 5713 5713 5713 5714 5714 5714 5714 5714 5714 5714 5713 5713 5713 5713 5712 5711 5711 5710 5709 5708 5707 5706 5705 5704 5703 5702 5702 5701 5700 5699 5697 5696 5695 5693 5692 5691 5690 5689 5688 5686 5685
5703 5703 5703 5703 5703 5703 5703 5704 5704 5705 5706 5706 5706 5707 5707 5708 5709 5709 5710 5711 5711 5712 5712 5712 5712 5713 5713 5713 5713 5713 5713 5712 5712 5712 5712 5711 5710 5710 5709 5708 5707 5706 5705 5703 5703 5702 5701 5700 5699 5699 5697 5696 5695 5693 5692 5691 5690 5689 5687 5686 5685 5684 5682
5701 5701 5701 5701 5701 5702 5702 5702 5703 5704 5704 5705 5705 5706 5706 5707 5708 5708 5709 5710 5710 5710 5711 5711 5711 5711 5711 5712 5712 5712 5711 5711 5711 5710 5710 5709 5708 5708 5706 5705 5704 5703 5702 5701 5700 5699 5698 5697 5697 5696 5695 5693 5692 5690 5689 5688 5687 5686 5684 5683 5682 5680 5679
5700 5700 5700 5700 5700 5700 5701 5701 5702 5702 5703 5703 5704 5705 5705 5706 5707 5708 5708 5709 5709 5709 5710 5710 5710 5710 5710 5710 5710 5710 5710 5710 5709 5709 5708 5707 5706 5705 5704 5703 5702 5701 5700 5699 5698 5697 5696 5695 5694 5693 5692 5691 5689 5688 5686 5685 5683 5682 5681 5679 5678 5677 5675
5698 5698 5698 5698 5698 5699 5699 5700 5700 5701 5702 5702 5703 5703 5704 5705 5706 5707 5707 5708 5708 5708 5708 5709 5709 5709 5709 5709 5709 5708 5708 5708 5707 5707 5706 5705 5704 5703 5702 5701 5700 5698 5697 5696 5695 5694 5693 5692 5691 5690 5689 5688 5687 5685 5684 5682 5681 5679 5678 5677 5675 5674 5672
5697 5697 5697 5697 5697 5697 5698 5698 5699 5699 5700 5701 5701 5702 5703 5704 5705 5705 5706 5707 5707 5707 5707 5707 5707 5707 5707 5707 5707 5706 5706 5705 5705 5704 5704 5703 5702 5701 5700 5698 5697 5696 5695 5694 5693 5692 5691 5690 5689 5688 5687 5686 5684 5683 5681 5680 5678 5677 5676 5674 5673 5671 5669
5695 5695 5695 5695 5695 5695 5696 5697 5697 5698 5699 5699 5700 5701 5702 5702 5703 5704 5704 5705 5705 5706 5706 5706 5706 5706 5705 5705 5705 5704 5704 5703 5702 5702 5701 5700 5699 5698 5697 5696 5694 5693 5692 5691 5690 5689 5688 5687 5686 5685 5684 5683 5682 5680 5679 5678 5676 5674 5673 5671 5670 5668 5666
5693 5693 5693 5693 5693 5694 5694 5695 5696 5696 5697 5698 5699 5699 5700 5701 5701 5702 5703 5703 5704 5704 5704 5704 5704 5704 5703 5703 5702 5702 5701 5700 5700 5699 5698 5697 5696 5695 5694 5693 5691 5690 5689 5688 5687 5686 5685 5684 5683 5682 5681 5680 5679 5678 5676 5675 5673 5671 5670 5668 5666 5665 5663
Wind_Speed
31 31 31 30 30 30 30 30 30 31 31 31 32 32 32 32 31 31 31 31 31 31 32 30 28 26 24 24 25 26 28 29 31 31 33 35 35 36 36 36 37 38 40 41 41 42 41 40 40 41 40 38 37 37 37 38 38 38 37 37 36 36 35
29 29 29 29 29 29 29 29 29 30 30 30 30 30 30 30 30 31 31 31 30 30 29 28 26 26 25 25 26 27 29 31 32 33 34 35 36 35 35 36 35 35 37 39 40 41 42 41 40 40 41 41 39 38 37 38 39 38 38 37 36 35 35
27 27 27 28 28 28 28 28 28 28 29 29 29 29 30 30 31 31 31 31 31 29 29 28 27 26 26 27 28 29 30 32 33 34 35 36 37 36 36 36 34 33 33 35 36 38 39 40 39 39 41 42 40 39 39 38 38 38 38 38 37 36 34
24 25 26 26 27 27 28 28 28 29 29 29 30 30 30 30 30 30 31 31 30 29 29 28 28 28 28 28 29 30 31 32 33 35 35 36 36 37 37 36 35 33 32 32 33 34 35 36 37 38 40 42 40 40 40 40 38 38 38 37 37 37 35
25 25 26 26 27 27 28 29 30 30 30 31 31 31 31 31 31 30 30 29 29 29 29 29 29 29 29 30 30 31 32 32 33 33 34 34 34 34 36 36 36 35 34 33 32 32 33 32 33 34 37 40 41 40 41 41 39 39 38 38 37 37 35
27 27 27 28 28 29 30 31 31 32 32 32 33 33 33 32 32 31 31 30 29 29 30 30 30 30 30 31 31 32 32 31 32 32 32 32 31 31 33 35 36 35 35 35 34 33 33 32 30 31 34 37 39 41 41 40 39 39 39 40 39 36 34
26 27 28 29 30 31 32 32 33 33 34 34 34 34 34 34 33 33 32 31 31 30 30 30 31 31 31 31 32 32 31 31 31 31 30 29 29 29 30 33 34 36 36 37 36 35 35 33 32 31 31 33 33 35 37 38 38 37 38 40 39 37 35
24 25 27 28 29 30 31 32 33 34 35 35 35 35 35 35 35 34 33 33 32 32 32 31 31 31 31 32 32 32 31 30 30 30 29 29 28 28 29 31 33 35 37 38 38 37 36 35 34 32 30 31 32 32 33 35 37 37 36 37 38 37 36
22 23 25 26 27 28 29 30 32 33 34 35 35 36 36 36 35 35 34 34 33 33 33 32 31 31 32 32 32 31 31 30 29 29 28 28 28 28 29 31 33 35 36 37 37 37 37 36 36 33 30 29 31 32 33 34 36 38 37 37 36 36 36
21 22 23 24 25 26 27 28 29 30 32 33 34 35 35 35 35 34 33 33 33 32 31 31 31 31 31 31 31 30 30 29 29 28 28 28 28 28 28 30 31 33 35 35 35 35 35 34 34 33 29 27 28 28 30 33 35 37 38 38 37 35 33
20 21 22 23 23 24 24 24 25 27 28 29 30 31 32 32 32 32 32 32 31 30 28 28 29 29 29 29 29 29 29 29 28 27 26 26 26 26 26 26 28 29 31 32 32 33 33 33 32 31 28 27 27 26 26 30 33 35 37 38 36 34 32
17 18 18 19 20 20 20 20 21 22 23 24 25 26 27 27 27 27 28 28 27 26 25 25 26 27 27 27 27 27 27 27 26 25 24 24 24 24 24 24 24 25 26 27 28 29 30 30 29 28 28 29 29 26 24 25 27 29 32 33 32 32 33
13 14 15 16 17 18 18 18 18 18 18 19 19 19 20 21 21 22 22 22 23 22 22 23 24 25 25 25 24 24 24 24 24 23 23 23 23 23 24 24 24 24 24 25 25 25 26 26 26 27 27 30 30 27 25 24 23 25 28 30 30 30 31
12 12 13 14 15 16 16 17 17 16 15 14 14 14 14 15 16 16 17 18 18 19 19 20 21 22 22 22 21 21 22 23 22 22 22 22 22 22 23 23 23 23 23 23 23 22 22 23 24 26 28 30 30 28 26 24 24 25 27 28 29 30 30
11 11 11 13 14 14 15 15 16 15 14 13 12 11 11 12 13 13 14 14 15 16 17 18 18 19 20 20 20 21 21 22 22 22 22 21 20 19 20 21 21 21 21 21 20 20 20 21 22 25 28 29 29 29 27 25 25 26 26 26 27 28 29
11 11 11 12 12 13 13 13 14 14 13 12 11 11 11 11 12 12 12 13 14 15 15 16 17 19 19 20 20 20 20 20 20 19 18 17 16 15 16 17 19 19 19 19 18 18 18 18 19 22 25 26 27 27 27 27 26 26 26 26 27 28 28
12 11 11 11 12 12 12 12 13 13 12 11 10 9 9 10 11 11 12 12 13 14 14 15 15 15 15 15 15 15 15 15 14 14 13 12 11 11 12 13 14 15 16 16 16 16 16 16 16 18 20 22 23 24 25 26 26 25 25 26 26 28 29
13 12 12 11 11 11 11 11 11 12 11 10 8 8 7 7 8 9 9 10 10 10 10 10 9 9 9 10 10 10 10 10 10 9 9 8 7 7 6 7 8 9 10 10 9 9 9 9 9 10 12 14 16 18 20 21 22 22 23 24 25 26 28
14 13 13 12 11 11 11 10 10 10 11 10 8 7 6 5 5 5 5 5 5 5 5 5 5 6 6 7 7 8 7 7 6 6 5 4 4 5 7 9 10 11 12 12 12 11 10 9 8 7 6 6 6 7 8 10 11 13 14 16 18 20 23
15 14 13 13 12 11 11 10 10 9 9 9 8 7 6 5 4 4 3 3 3 3 3 4 4 5 5 6 6 6 5 5 4 3 3 4 6 7 9 10 11 11 12 12 12 13 12 12 12 11 10 10 9 8 8 7 7 8 8 8 10 11 14
15 14 14 13 13 12 11 11 10 9 8 8 7 6 5 4 4 3 3 3 2 2 2 2 2 3 3 3 3 3 3 3 3 3 4 5 7 8 8 9 9 10 11 11 12 13 13 13 13 13 12 12 11 11 11 10 10 10 10 10 10 10 11
15 15 14 13 13 12 12 11 11 10 9 8 7 6 5 4 3 3 2 2 2 2 2 2 2 2 1 1 1 2 2 3 4 4 5 6 6 6 7 7 8 9 10 10 11 12 12 13 13 13 13 13 13 13 13 13 12 12 12 12 12 12 12
15 15 14 13 13 12 12 12 11 11 10 9 8 6 5 4 4 3 2 2 1 1 2 2 3 3 3 3 3 3 3 4 4 5 5 5 5 5 5 6 7 8 9 10 11 12 13 13 14 14 14 14 14 15 15 15 15 15 14 14 14 14 14
15 15 14 13 12 12 12 12 12 11 10 9 8 7 6 5 4 3 3 2 1 0 1 2 3 3 3 3 3 3 3 3 4 5 5 3 3 3 3 5 6 8 9 10 11 12 14 15 15 15 15 15 15 17 18 18 18 17 16 15 15 15 16
14 14 14 13 12 11 11 11 11 11 10 9 8 7 7 6 5 4 3 2 1 1 2 3 3 3 3 2 2 2 2 2 4 4 2 1 2 2 4 5 7 8 10 11 12 13 14 15 15 15 15 15 16 18 19 20 19 18 17 16 16 16 16
14 14 14 13 12 11 11 11 11 10 10 9 8 8 7 6 5 4 3 2 2 2 2 3 3 3 2 2 2 2 2 3 4 3 1 1 2 4 5 7 9 10 11 12 13 14 15 15 15 15 15 15 17 18 19 19 18 17 16 16 16 16 16
15 15 14 12 11 11 10 10 10 10 9 9 8 8 7 6 5 4 3 2 2 2 2 2 2 2 2 1 1 2 2 3 4 3 4 5 6 7 9 10 11 12 12 13 14 15 15 15 15 15 16 16 18 19 19 18 16 15 15 15 16 17 17
15 15 14 12 11 11 10 9 9 9 9 8 8 7 7 6 5 4 3 3 3 2 2 2 1 1 1 0 1 2 2 3 4 5 7 8 9 11 12 13 13 14 15 16 17 17 16 16 15 16 17 18 19 19 17 16 15 15 15 16 17 18 18
15 15 14 11 10 10 9 9 9 9 8 8 8 7 7 6 5 4 4 3 2 2 1 1 0 0 1 1 1 2 3 4 6 7 9 10 11 13 14 15 16 17 18 18 18 18 17 16 16 17 18 19 19 18 17 16 15 16 16 17 18 18 18
15 15 13 10 9 8 8 8 8 8 8 8 8 7 7 7 6 5 4 3 2 2 1 1 1 1 1 2 2 3 5 6 7 8 9 11 12 14 15 17 18 19 19 19 19 18 18 17 17 18 19 19 19 18 17 16 16 16 17 17 18 19 20
14 13 12 9 8 8 8 8 8 8 8 8 8 8 8 7 6 6 4 3 3 2 2 2 2 2 2 3 3 4 6 7 8 9 11 12 13 15 16 18 19 20 20 20 19 19 18 18 18 19 19 20 21 20 19 17 17 17 17 18 19 20 21
13 12 10 8 7 7 7 8 8 7 8 8 8 8 8 8 7 6 5 4 4 3 3 3 3 3 3 4 5 6 7 8 9 11 12 13 15 16 18 19 20 21 21 20 20 19 19 20 20 20 20 21 22 22 21 20 19 19 19 20 21 22 23
11 10 9 7 7 7 7 7 8 7 8 8 9 9 9 8 8 7 6 5 5 5 4 4 4 4 5 6 7 8 9 9 10 12 14 15 17 18 19 21 21 22 21 21 21 20 20 21 21 21 21 22 23 24 24 23 22 22 22 23 23 24 25
11 10 9 7 7 7 7 7 8 8 8 8 9 9 10 9 9 8 7 7 6 6 6 6 6 6 7 8 9 10 11 12 13 15 16 18 19 20 21 22 22 22 22 21 21 21 21 21 22 22 21 22 23 24 25 24 23 23 23 24 24 25 26
11 10 9 8 8 7 7 7 7 8 8 9 10 10 11 11 10 9 9 8 8 7 7 8 8 9 10 11 11 12 13 15 16 17 18 19 20 21 22 23 23 22 22 22 21 21 22 22 22 22 22 22 23 25 25 25 24 23 23 24 24 25 26
10 10 9 9 8 7 7 7 8 8 9 10 11 12 12 12 12 11 10 10 9 9 10 10 11 12 12 13 13 14 16 17 18 19 20 21 21 22 23 23 23 23 23 22 22 22 22 23 23 23 23 23 23 25 25 25 25 24 24 24 25 26 27
10 10 9 8 8 8 8 8 9 9 10 11 12 13 14 13 13 13 12 11 11 12 12 12 13 13 14 15 16 17 18 19 20 21 21 21 22 23 23 23 23 23 23 23 23 23 23 23 24 24 24 24 24 25 26 26 26 25 25 25 25 26 27
Wind_Direction
265 264 263 262 260 259 259 259 259 259 260 260 260 261 261 261 262 263 264 264 264 263 263 265 265 266 268 272 275 277 279 280 279 278 276 276 276 276 276 276 275 272 270 267 264 262 259 258 260 261 260 257 257 258 259 260 259 259 259 259 260 262 264
265 262 261 260 258 256 256 257 258 259 259 259 260 260 260 261 262 263 264 265 266 265 264 263 262 265 270 274 279 282 283 283 281 279 277 276 276 276 276 277 278 277 276 274 271 268 264 261 260 262 262 260 259 258 258 259 260 260 260 260 260 260 261
265 262 260 259 258 257 257 257 258 259 260 260 260 259 260 262 264 265 266 266 266 264 263 262 262 266 271 276 280 284 284 283 282 281 278 277 276 275 275 274 276 278 279 279 278 275 272 267 263 262 263 263 262 261 260 258 259 261 261 261 261 260 259
268 265 263 261 260 261 261 262 262 262 262 261 261 261 261 263 265 267 267 266 264 262 261 260 262 266 271 276 281 283 284 283 282 281 281 280 278 275 274 273 273 275 277 279 280 279 277 273 268 265 264 264 264 265 264 261 261 262 262 263 262 262 260
270 268 267 266 265 264 265 265 266 265 265 264 264 263 263 263 265 266 267 266 263 261 260 259 262 266 271 277 281 282 283 282 282 283 283 283 280 276 274 273 272 272 274 277 279 280 280 278 273 268 266 265 263 264 266 266 265 265 264 263 263 263 262
272 271 270 269 268 266 266 265 265 265 265 265 264 264 264 264 264 265 265 265 264 262 260 260 263 266 271 276 279 281 282 282 283 285 286 286 283 278 274 273 272 271 272 274 276 278 280 281 277 269 264 263 261 260 262 264 266 267 266 265 265 267 265
274 274 273 272 271 269 267 265 264 264 263 264 264 264 264 264 263 263 263 263 263 262 261 262 263 267 271 275 278 279 280 281 283 285 287 288 287 282 278 275 273 272 272 274 275 277 278 280 279 272 265 264 264 261 260 261 262 265 268 268 268 269 268
277 276 276 275 274 272 270 267 266 264 263 263 263 263 264 264 264 263 263 262 262 262 262 262 264 267 270 273 276 278 279 280 281 283 285 287 287 285 282 278 275 274 274 274 276 277 277 278 278 275 267 264 267 266 263 262 261 262 267 271 270 269 269
280 279 278 277 276 274 273 271 269 266 265 264 263 263 263 264 265 265 265 264 263 263 263 263 264 265 268 271 275 277 278 279 280 281 283 284 286 285 283 280 278 276 276 276 277 277 276 275 274 273 268 262 262 264 264 263 262 261 263 269 272 269 268
281 280 280 279 278 277 275 273 271 269 267 265 264 263 263 264 265 266 266 266 266 266 264 263 262 263 266 269 272 275 276 278 279 280 281 283 285 286 286 285 283 282 280 280 279 277 275 273 271 269 265 260 257 257 260 261 262 263 261 265 271 270 268
282 282 282 282 282 281 280 278 275 272 268 266 264 263 263 263 264 265 265 266 266 266 264 262 261 263 265 267 269 272 274 276 278 279 281 283 285 288 290 291 291 289 286 284 281 278 275 273 270 266 261 257 252 249 255 257 257 258 259 261 266 268 266
290 289 289 289 289 289 288 286 283 278 272 268 265 263 263 263 263 264 264 265 265 264 261 260 261 263 265 267 269 271 273 275 278 280 282 284 287 290 294 297 298 297 293 288 284 279 275 272 268 264 259 254 249 245 249 253 252 252 256 259 263 263 263
301 301 301 300 299 299 298 298 297 291 281 272 268 266 264 263 264 264 264 264 263 261 260 261 262 264 266 269 271 272 274 277 279 282 284 287 290 293 297 300 300 300 297 292 286 280 274 270 267 264 258 253 250 247 246 248 252 255 256 258 260 260 260
309 310 310 309 308 308 307 307 308 306 296 282 273 270 267 265 265 264 264 264 262 261 262 263 264 266 269 272 275 277 279 281 284 286 289 290 293 295 297 298 299 298 297 294 288 280 272 267 265 263 259 255 253 252 247 243 246 252 254 254 256 257 257
309 311 313 313 314 316 316 314 315 316 311 297 281 273 269 267 265 263 262 262 262 263 264 266 268 270 273 276 278 280 283 285 288 290 292 294 296 297 297 297 296 296 295 293 289 281 272 266 264 264 263 261 259 258 254 247 243 246 249 251 253 255 256
304 308 310 313 317 322 324 323 321 319 318 311 298 284 275 271 268 265 262 261 262 263 265 267 270 273 276 280 283 286 288 290 291 293 294 296 299 299 298 297 297 296 294 292 289 283 275 267 264 265 267 269 269 268 265 259 254 251 251 252 254 256 257
300 303 306 311 317 323 327 329 327 325 324 322 314 301 287 277 271 268 265 263 263 265 267 270 273 278 283 288 292 294 294 295 296 297 298 302 305 307 306 306 305 305 304 300 295 290 283 276 271 270 272 274 275 274 273 270 266 263 260 260 260 261 262
297 298 302 307 313 319 324 328 329 331 332 331 325 318 307 293 282 275 271 269 269 270 273 277 283 289 295 299 300 301 302 302 302 303 306 313 321 332 341 349 352 352 351 347 339 329 317 307 298 289 285 282 280 278 276 275 273 272 271 270 269 269 269
295 294 296 300 305 311 316 321 325 330 335 336 336 337 333 326 312 297 289 283 280 281 283 287 291 295 299 302 305 308 311 312 314 318 327 344 15 39 48 50 49 46 44 42 40 39 37 34 30 22 6 345 325 309 298 292 288 285 282 280 278 277 276
294 293 294 295 298 302 305 311 317 323 328 330 335 344 350 351 349 341 330 319 309 302 297 295 295 297 301 304 307 312 318 326 338 355 22 49 64 69 67 64 60 55 51 48 45 43 41 39 36 33 29 23 15 6 357 348 340 331 321 311 302 295 289
290 290 292 292 294 297 298 301 305 311 318 320 324 333 343 353 359 1 2 3 359 350 330 316 313 312 315 315 317 329 345 4 28 54 71 79 80 76 70 63 56 51 46 41 37 33 29 26 23 20 16 11 5 360 353 348 344 339 335 329 323 317 311
284 285 287 289 291 294 296 297 298 300 305 309 313 318 321 328 337 349 5 18 31 49 62 63 62 59 49 50 58 59 65 74 78 84 87 87 80 68 59 53 46 40 33 27 23 19 15 12 9 6 3 1 358 354 350 345 340 335 330 325 321 316 312
280 281 281 284 288 293 294 295 294 294 295 298 302 305 305 306 308 312 325 343 1 48 77 83 85 87 88 91 87 87 94 95 96 99 98 89 74 58 47 37 26 17 10 6 3 2 360 357 355 352 351 351 350 349 345 341 337 332 327 323 319 314 309
277 277 277 280 284 289 292 292 291 291 291 291 293 295 297 296 292 289 294 295 286 170 102 91 83 81 81 81 81 88 96 100 109 116 111 93 67 46 24 6 357 351 348 347 347 347 346 345 343 343 342 342 342 341 339 336 332 328 325 322 319 316 312
275 274 273 275 279 284 289 290 289 288 287 287 286 287 290 290 284 277 274 266 236 143 103 91 83 80 81 84 91 104 113 128 138 138 123 75 33 6 349 342 338 336 336 335 335 335 335 336 335 335 335 335 334 333 331 329 327 325 324 323 322 320 318
275 273 271 271 275 281 285 287 286 285 282 281 281 281 282 282 278 267 249 220 177 135 112 105 101 100 107 119 131 146 164 166 167 174 231 311 323 327 328 329 327 325 324 323 324 325 327 328 329 330 330 329 327 325 324 323 322 321 320 321 322 322 320
274 272 269 269 273 279 283 285 285 282 278 276 275 276 276 277 275 259 222 187 161 144 132 125 118 116 129 150 162 179 194 199 211 243 282 299 309 316 319 319 317 316 316 317 319 322 324 325 327 326 325 323 321 320 320 319 318 317 317 317 318 319 318
273 271 268 268 272 277 280 282 281 277 273 271 271 272 271 270 265 245 209 182 164 153 144 134 123 105 107 166 206 223 230 238 255 276 292 302 308 311 312 311 310 311 314 317 319 321 322 323 323 322 321 321 321 320 321 321 320 319 319 320 319 319 319
272 270 267 267 270 274 276 276 274 270 267 265 265 264 263 261 252 228 203 189 175 165 160 159 137 6 332 306 288 279 277 280 287 294 300 305 307 308 308 308 309 312 315 317 319 320 320 319 317 318 321 324 325 325 323 322 322 321 322 322 321 321 321
271 269 267 266 268 271 271 269 268 265 262 259 259 258 256 251 237 216 202 196 190 189 200 228 272 297 309 313 312 307 304 302 302 304 305 305 306 307 308 310 312 315 316 317 316 316 315 314 314 317 323 328 330 328 326 324 323 324 324 324 324 324 324
270 267 265 264 264 265 265 264 262 260 257 255 254 253 249 240 225 210 203 202 206 218 231 245 269 286 304 317 318 314 310 307 306 306 305 306 308 311 314 316 317 317 316 315 314 313 312 312 312 317 324 331 333 332 330 327 326 326 326 326 327 326 326
268 266 264 261 260 260 260 260 259 256 253 250 248 247 242 229 215 207 205 211 221 232 241 251 265 281 299 306 305 303 301 301 302 304 307 310 314 317 318 319 319 317 316 314 313 312 312 312 313 316 323 330 335 335 333 329 328 328 329 330 330 329 330
267 266 264 261 259 259 259 258 256 251 248 245 243 241 233 219 208 205 209 217 227 237 247 257 269 281 289 291 291 293 295 298 302 305 309 312 314 316 317 318 318 317 316 315 313 311 311 312 313 314 318 326 332 334 333 331 330 330 330 331 331 330 331
267 267 264 261 260 260 257 253 249 245 242 241 237 232 223 213 206 205 211 219 228 238 249 259 268 275 278 280 283 288 294 299 302 303 306 308 311 313 314 315 316 317 316 315 313 311 310 311 312 312 314 320 327 331 332 331 330 328 328 328 328 328 330
267 266 264 262 262 261 255 247 241 237 236 236 231 223 215 211 208 209 215 223 230 239 248 255 262 266 270 274 280 287 292 296 299 301 303 305 308 310 313 314 315 316 316 315 313 311 310 310 311 311 311 315 321 326 329 329 328 326 325 324 324 326 329
268 265 261 260 258 256 252 245 238 234 231 228 223 217 213 213 215 217 223 228 233 240 247 252 258 263 269 275 281 287 292 295 297 299 301 303 306 309 311 313 314 314 314 314 312 311 310 310 310 310 309 310 315 320 324 326 326 324 323 322 322 324 327
266 263 259 255 253 252 250 245 238 233 229 222 217 215 215 217 221 224 229 234 239 244 249 253 259 265 271 278 284 288 292 294 296 298 300 302 305 308 310 311 312 312 312 312 312 311 310 310 309 308 307 308 311 315 319 322 324 323 322 321 321 321 324